This is the latest recevied weather packets stored in our database for station/object N0NAI-13. If no packets are shown the sender has not sent any weather packets the latest 10 day(s).
| Time | Temp. | Humidity | Pressure | Rain* | Wind** | Luminosity | Snow |
|---|---|---|---|---|---|---|---|
| 1778194517 | 18.89° C | 23% | 1012.3 hPa | 0 mm | - | - | - |
| 1778193919 | 17.78° C | 24% | 1012.2 hPa | 0 mm | - | - | - |
| 1778193322 | 18.33° C | 23% | 1012.2 hPa | 0 mm | - | - | - |
| 1778192725 | 17.78° C | 23% | 1012.2 hPa | 0 mm | - | - | - |
| 1778192128 | 17.78° C | 24% | 1012.2 hPa | 0 mm | - | - | - |
| 1778191530 | 17.78° C | 27% | 1012.3 hPa | 0 mm | - | - | - |
| 1778190916 | 18.89° C | 24% | 1012.4 hPa | 0 mm | - | - | - |
| 1778190318 | 18.33° C | 24% | 1012.3 hPa | 0 mm | - | - | - |
| 1778189721 | 18.33° C | 25% | 1012.2 hPa | 0 mm | - | - | - |
| 1778189124 | 17.22° C | 27% | 1012.2 hPa | 0 mm | - | - | - |
| 1778188521 | 17.22° C | 26% | 1012.2 hPa | 0 mm | - | - | - |
| 1778187919 | 16.67° C | 25% | 1012.4 hPa | 0 mm | - | - | - |
| 1778187315 | 17.22° C | 27% | 1012.5 hPa | 0 mm | - | - | - |
| 1778186730 | 16.67° C | 28% | 1012.7 hPa | 0 mm | - | - | - |
| 1778186115 | 16.67° C | 27% | 1012.7 hPa | 0 mm | - | - | - |
| 1778185518 | 16.67° C | 28% | 1012.8 hPa | 0 mm | - | - | - |
| 1778184921 | 16.67° C | 28% | 1012.9 hPa | 0 mm | - | - | - |
| 1778184323 | 16.67° C | 28% | 1012.9 hPa | 0 mm | - | - | - |
| 1778183726 | 16.67° C | 30% | 1013 hPa | 0 mm | - | - | - |
| 1778183128 | 15.56° C | 29% | 1013 hPa | 0 mm | - | - | - |
| 1778182531 | 16.11° C | 29% | 1013 hPa | 0 mm | - | - | - |
| 1778181916 | 16.67° C | 30% | 1013.1 hPa | 0 mm | - | - | - |
| 1778181319 | 15.56° C | 31% | 1013.3 hPa | 0 mm | - | - | - |
| 1778180722 | 16.11° C | 31% | 1013.1 hPa | 0 mm | - | - | - |
| 1778180125 | 15.56° C | 32% | 1013.3 hPa | 0 mm | - | - | - |
* Rain latest hour (hover to see other rain measurements)
** Current wind speed in m/s (hover to see current wind gust speed)